User: anonymous   Login
Location: Pine Mountain Observatory
(43.7910°N, 120.9377°W)
Time: 09:48:39
(UTC-07:00)
Language:

A-11 Canister half - Orbit

View from above orbital plane
View from above orbital plane
View from above satellite
View from above satellite

Ground track
Ground track

The orbit data is extracted from the following two-line orbital elements,

1    53U 60009E   19143.80192227 +.00000045 +00000-0 +12818-2 0  9993
2    53 047.2784 023.6711 0100008 007.1944 353.0256 12.17228260620986
Epoch (UTC): 23 May 2019 19:14:46
Eccentricity: 0.0100008
inclination: 47.2784°
perigee height: 1525 km
apogee height: 1684 km
right ascension of ascending node: 23.6711°
argument of perigee: 7.1944°
revolutions per day: 12.17228260
mean anomaly at epoch: 353.0256°
orbit number at epoch: 62098

The dashed part of the orbit path shows where the satellite is in the earth's shadow,  

DLR